Weather History for Deadhorse, AK

Change the Weather History Date:

Tuesday, November 20, 2012

  Actual Average Record
Temperature  
Mean Temperature 0 °F -  
Max Temperature 3 °F 6 °F 37 °F (2000)
Min Temperature -2 °F -2 °F -40 °F (2005)
Degree Days  
Heating Degree Days 64    
Moisture  
Dew Point -3 °F    
Average Humidity 83    
Maximum Humidity 88    
Minimum Humidity 80    
Precipitation  
Precipitation 0.00 in - - ()
Sea Level Pressure  
Sea Level Pressure 30.39 in    
Wind  
Wind Speed 6 mph (East)    
Max Wind Speed 14 mph    
Max Gust Speed -    
Visibility 8 miles    
Events Snow    
Averages and records for this station are not official NWS values.
T = Trace of Precipitation, MM = Missing Value Source: NWS Daily Summary

Daily Weather History Graph

Daily Weather History Graph

Search for Another Location

Airport:

Trip Planner

Search our weather history database for the weather conditions in past years. The results will help you decide how hot, cold, wet, or windy it might be!

Date:

Astronomy

Nov. 20, 2012 Rise Set
Actual Time 11:35 AM AKST 1:43 PM AKST
Civil Twilight 9:30 AM AKST 3:48 PM AKST
Nautical Twilight 8:02 AM AKST 5:16 PM AKST
Astronomical Twilight 6:47 AM AKST 6:30 PM AKST
Moon 2:09 PM AKST (11/20) No Moon Set
Length of Visible Light 6h 18m
Length of Day
2h 08m
First Quarter, 53% of the Moon is Illuminated
Nov 20
First Quarter
Nov 28
Full
Dec 6
Last Quarter
Dec 12
New
Dec 19
First Quarter

Hourly Weather History & Observations

Time (AKST) Temp. Windchill Dew Point Humidity Pressure Visibility Wind Dir Wind Speed Gust Speed Precip Events Conditions
12:53 AM 3.0 °F -9.3 °F -0.9 °F 84% 30.50 in 9.0 mi NE 6.9 mph - 0.00 in Snow Light Snow
1:53 AM 3.0 °F -9.3 °F -0.9 °F 84% 30.49 in 9.0 mi East 6.9 mph - 0.00 in Snow Light Snow
2:53 AM -0.9 °F -11.0 °F -5.1 °F 83% 30.48 in 9.0 mi SW 4.6 mph - 0.00 in Snow Light Snow
3:53 AM -2.9 °F -15.0 °F -7.1 °F 82% 30.46 in 9.0 mi SW 5.8 mph - 0.00 in Snow Light Snow
4:53 AM -2.0 °F -12.2 °F -6.0 °F 83% 30.45 in 9.0 mi West 4.6 mph - 0.00 in Snow Light Snow
5:53 AM 1.0 °F - -2.0 °F 87% 30.43 in 9.0 mi Calm Calm - 0.00 in Snow Light Snow
6:53 AM 1.9 °F - -2.9 °F 80% 30.43 in 9.0 mi Calm Calm - 0.00 in Snow Light Snow
7:53 AM 1.9 °F -7.6 °F -0.9 °F 88% 30.43 in 9.0 mi East 4.6 mph - 0.00 in Snow Light Snow
8:53 AM 3.0 °F -10.5 °F -0.9 °F 84% 30.40 in 9.0 mi East 8.1 mph - 0.00 in Snow Light Snow
9:53 AM 3.0 °F -12.5 °F -0.0 °F 87% 30.40 in 9.0 mi East 10.4 mph - 0.00 in Snow Light Snow
10:53 AM 3.0 °F -12.5 °F -0.9 °F 84% 30.38 in 7.0 mi East 10.4 mph - 0.00 in Snow Light Snow
11:53 AM 1.9 °F -12.9 °F -2.0 °F 83% 30.38 in 9.0 mi SE 9.2 mph - 0.00 in Snow Light Snow
12:53 PM -0.9 °F -11.0 °F -5.1 °F 83% 30.37 in 7.0 mi SW 4.6 mph - 0.00 in Snow Light Snow
1:53 PM -0.0 °F -7.9 °F -4.0 °F 83% 30.36 in 9.0 mi WNW 3.5 mph - 0.00 in Snow Light Snow
2:53 PM 1.0 °F -6.7 °F -2.9 °F 83% 30.35 in 7.0 mi East 3.5 mph - 0.00 in Snow Light Snow
3:53 PM 1.0 °F -6.7 °F -2.9 °F 83% 30.35 in 7.0 mi ENE 3.5 mph - 0.00 in Snow Light Snow
4:53 PM 1.0 °F -6.7 °F -2.0 °F 87% 30.35 in 9.0 mi East 3.5 mph - 0.00 in   Overcast
5:53 PM 1.9 °F -16.2 °F -2.0 °F 83% 30.34 in 9.0 mi East 13.8 mph - N/A   Overcast
6:53 PM 1.9 °F -13.8 °F -2.0 °F 83% 30.35 in 9.0 mi East 10.4 mph - N/A   Overcast
7:53 PM 1.9 °F -13.8 °F -2.0 °F 83% 30.34 in 7.0 mi East 10.4 mph - N/A   Overcast
8:53 PM 1.9 °F -13.8 °F -2.0 °F 83% 30.34 in 9.0 mi ENE 10.4 mph - N/A   Overcast
9:53 PM 1.9 °F -13.8 °F -2.9 °F 80% 30.35 in 9.0 mi East 10.4 mph - 0.00 in Snow Light Snow
10:53 PM 1.9 °F -11.8 °F -2.0 °F 83% 30.35 in 8.0 mi ENE 8.1 mph - 0.00 in Snow Light Snow
11:53 PM 1.9 °F -12.9 °F -2.9 °F 80% 30.36 in 9.0 mi East 9.2 mph - 0.00 in Snow Light Snow